Home   Weather   Middlesbrough   Past weeks

Flag for United Kingdom Past Weather in Middlesbrough, England, United Kingdom — Yesterday and Last 2 Weeks

Now
48 °F

Passing clouds.


Feels Like: 42 °F
Forecast: 42 / 50 °F
Wind: 17 mph from Southeast

Location: Leeming

Current Time: Jan 24, 2018 at 2:07:08 am

Latest Report: Jan 24, 2018 at 12:50 am


Visibility: N/A

Pressure: 29.59 "Hg

Humidity: 76%

Dew Point: 41 °F

Location of MiddlesbroughLocation

Past Weather in Middlesbrough — Graph

°F

Middlesbrough Temperature Yesterday

Maximum temperature yesterday: 54 °F (at 11:50 am)
Minimum temperature yesterday: 39 °F (at 5:50 am)
Average temperature yesterday: 48 °F

High & Low Weather Summary for the Past Weeks

 TemperatureHumidityPressure
High54 °F (Jan 23, 11:50 am)100% (Jan 9, 9:50 am)30.30 "Hg (Jan 9, 9:50 am)
Low25 °F (Jan 20, 9:50 pm)61% (Jan 19, 4:50 pm)29.00 "Hg (Jan 18, 2:50 am)
Average39 °F87%29.69 "Hg
* Reported Jan 8 11:50 pm — Jan 23 11:50 pm, Middlesbrough. Weather by CustomWeather, © 2018

Note: Actual official high and low records may vary slightly from our data, if they occured in-between our weather recording intervals... More about our weather records

Advertising

Middlesbrough Weather History for the Previous 24 Hours

Scroll right to see more
 ConditionsComfort  
Time TempWeatherWind HumidityBarometerVisibility
11:50 pm
Tue, Jan 23
48 °FPassing clouds.18 mph76%29.62 "HgN/A
10:50 pm48 °FPassing clouds.15 mph76%29.65 "HgN/A
9:50 pm48 °FPassing clouds.17 mph76%29.68 "HgN/A
8:50 pm48 °FPassing clouds.21 mph76%29.65 "HgN/A
7:50 pm50 °FPassing clouds.22 mph76%29.65 "HgN/A
6:50 pm50 °FCool.25 mph76%29.65 "HgN/A
5:50 pm52 °FCool.26 mph77%29.62 "HgN/A
4:50 pm52 °FPassing clouds.23 mph77%29.62 "HgN/A
3:50 pm54 °FPartly sunny.20 mph77%29.62 "HgN/A
3:22 pm54 °FBroken clouds.18 mph82%29.62 "HgN/A
2:50 pm54 °FScattered clouds.16 mph82%29.62 "HgN/A
1:50 pm54 °FLight rain. Broken clouds.21 mph82%29.62 "HgN/A
12:50 pm54 °FPartly sunny.16 mph82%29.62 "HgN/A
11:50 am54 °FPartly sunny.20 mph82%29.62 "HgN/A
10:50 am52 °FPartly sunny.18 mph82%29.65 "HgN/A
9:50 am45 °FPartly sunny.17 mph93%29.65 "HgN/A
8:50 am45 °FPartly sunny.17 mph87%29.68 "HgN/A
8:19 am41 °FDrizzle. Partly sunny.9 mph93%29.71 "HgN/A
7:50 am41 °FPartly cloudy.10 mph93%29.71 "HgN/A
6:50 am41 °FPassing clouds.14 mph87%29.74 "HgN/A
5:50 am39 °FPartly cloudy.12 mph93%29.77 "HgN/A
4:50 am41 °FPassing clouds.16 mph87%29.80 "HgN/A
3:50 am45 °FPartly cloudy.14 mph81%29.83 "HgN/A
2:50 am46 °FPassing clouds.13 mph71%29.86 "HgN/A
Weather by CustomWeather, © 2018

See weather overview